STARLINK-34326, 64221

Orbit data source: Space-Track

STARLINK-34326, 64221 is a payload satellite owned by SpaceX/Seattle (US) in LEO that was launched on Sat, 31 May 2025 UTC via an FALCON 9 launch vehicle from the Air Force Western Test Range (AFWTR). Payload-class satellites include a variety of spacecraft equipped with specific instruments for various scientific and technological missions. These include communications satellites like Starlink; space stations such as the ISS; scientific satellites like the Hubble; Earth observation satellites from companies like Planet Labs, Umbra, and HawkEye 360; GPS; miniature CubeSats for education and research; and military/defense satellites.

Loading next visibility...
Identifier
64221, 2025-117U
Orbit
LEO
Country
Flag of USUS
Related business
Manufacturer
SpaceX/Seattle
Mission
Operational Commercial Communications
Bus & Motor
STARLINK V2MO, Unknown motor
Mass
575 kg wet, ~530 kg dry
Launch date (UTC)
2025-05-31 (1 year ago)
Launch vehicle
FALCON 9
Launch site
Air Force Western Test Range (AFWTR)
Object type
Payload
Rocket body
Debris
Shape & HBR
Box + 2 Pan, 17.7 m
Radar Cross Section
36.964 m², Large (>1 m²)

Expand to show TLE details & history
Last TLE update: 1 day ago

TLE from 1 day ago
0 STARLINK-34326
1 64221U 25117U   26170.59798041  .00028548  00000-0  85285-3 0  9998
2 64221  53.1612 285.8755 0000548  39.9702 320.1341 15.34400107 60164
Epoch: 2026-06-19T14:21Z
TLE epoch observation values (Epoch: 2026-06-19T14:21:05.507Z)
Latitude
-0.00001°
Longitude
162.77789°
Altitude
463.317 km
Speed
7.636 km/s
True Right ascension
19h 03m 30s
True Declination
0° 00' 00"
Sunlit
Object was in full shadow at epoch
Visualization orbit readout
Latitude
Unknown
Longitude
Unknown
Altitude
Unknown
Speed
Unknown
Apparent Right ascension
Unknown
Apparent Declination
Unknown
Sunlit
N/A
Visualization observer readout
Local Sidereal Time
10:19:49
Azimuth
Unknown
Elevation
Unknown
Doppler factor
Unknown
Orbital elements
Apogee altitude
463.335 km
Perigee altitude
462.585 km
Semi-major axis
6,841.097 km
Eccentricity
0.00005
Inclination
53.1612°
RAAN
285.8755°
Arg. of periapsis
39.9702°
True anomaly
320.13007°
Mean anomaly
320.1341°
Eccentric anomaly
320.13209°
Mean motion
3.83579 °/min
Orbital period
93.85 mins
BSTAR
0.00085285
Loading maneuver chart data...
Computing Atmospheric mass density...
Loading historical data...
Loading historical data...
Loading historical data...
Loading historical data...
Loading historical data...
Loading historical data...
Loading historical data...

Documentation

Showing up to 5 results
|